Wind_Speed
23 23 22 22 22 21 22 22 22 22 22 22 22 22 22 25 28 13 5 7 7 8 4 2 7 15 18 9 11 7 3 3 5 5 2 9 21 18 10 25 21 9 21 23 27
24 25 25 25 24 23 22 22 22 23 23 22 20 19 21 24 23 15 17 14 8 6 3 8 9 13 6 7 8 4 1 5 9 8 9 7 14 10 10 21 20 23 22 27 24
25 27 26 25 25 24 23 23 22 25 23 19 19 18 19 20 6 3 5 12 9 11 11 13 18 10 9 10 6 10 7 14 15 18 7 12 9 8 6 20 26 26 24 20 20
27 28 29 29 27 26 25 24 24 24 19 19 18 16 15 6 2 2 7 5 5 8 7 7 8 9 8 10 4 7 8 11 8 12 14 22 9 6 16 21 25 24 24 20 15
28 29 30 30 29 28 26 25 26 20 19 17 15 12 6 4 9 7 4 4 1 9 10 11 9 8 9 9 6 4 6 9 13 14 15 14 14 10 21 26 24 21 20 19 16
28 31 32 32 30 29 27 25 25 17 18 14 12 8 2 5 7 4 4 1 7 8 11 15 8 9 9 9 8 6 10 9 11 14 15 15 13 11 19 27 26 21 17 16 14
28 31 32 34 31 28 28 27 21 16 15 11 10 3 6 15 3 8 5 8 8 12 9 19 21 6 5 9 9 5 10 7 20 11 13 15 6 13 19 22 24 21 17 16 11
29 32 33 35 32 28 28 26 19 16 9 8 7 3 7 9 6 21 10 13 12 17 18 21 16 8 4 8 9 8 7 5 11 9 15 11 8 18 20 22 21 20 17 14 8
30 33 36 35 32 28 28 22 20 11 5 6 4 5 7 3 7 13 10 14 14 15 9 17 5 5 8 4 5 6 6 10 16 11 16 10 18 15 22 20 20 20 17 14 10
31 34 36 35 29 27 24 22 9 7 2 3 11 6 9 10 9 15 16 14 8 7 8 7 1 3 4 2 7 8 8 9 11 10 13 14 14 16 18 20 19 18 18 15 14
31 33 35 34 27 21 24 8 2 1 4 7 5 5 9 4 3 4 7 16 9 5 6 7 4 7 10 10 10 13 10 12 10 5 4 16 17 15 14 11 16 16 17 16 14
31 32 33 31 23 14 15 4 7 8 8 13 17 18 13 7 4 9 13 5 6 7 8 6 10 10 11 13 15 16 15 14 10 12 10 11 13 15 13 12 8 17 16 16 14
32 30 31 26 18 13 9 6 8 13 3 9 11 9 8 6 6 8 11 10 6 9 9 10 9 16 16 12 14 14 9 9 7 8 16 11 4 2 2 6 7 8 17 15 15
31 30 29 29 8 17 6 12 11 11 2 5 7 5 5 5 6 17 16 8 6 11 12 8 15 16 15 14 9 9 9 14 13 3 6 11 5 4 3 1 9 6 8 11 15
31 30 26 17 16 8 10 14 10 5 4 13 8 6 7 7 3 3 4 6 10 9 6 10 15 13 15 15 12 8 11 8 12 6 5 5 2 6 5 10 10 18 12 18 18
34 31 24 4 10 12 17 15 8 2 4 7 7 8 6 6 10 5 4 5 6 8 12 9 10 15 15 12 12 13 8 7 7 3 4 16 14 5 8 18 15 19 23 21 20
37 31 18 10 6 9 17 8 1 3 2 4 2 4 9 10 11 7 8 7 5 3 6 10 12 13 11 8 6 6 2 2 4 3 6 8 6 8 24 18 20 20 16 10 17
38 22 10 15 10 14 16 3 3 10 13 5 7 7 7 10 8 7 6 6 10 9 6 6 7 9 10 8 7 8 8 5 7 4 6 9 11 7 16 19 17 15 15 8 11
33 12 8 13 8 10 2 3 3 6 9 10 11 6 7 10 3 3 4 5 6 6 0 6 6 16 11 6 7 7 4 9 5 9 2 6 8 5 12 15 18 9 12 14 10
24 8 13 15 8 10 1 4 4 9 9 7 5 6 10 9 7 4 4 4 5 8 7 6 6 6 12 6 7 7 6 4 2 4 4 6 6 5 13 15 15 18 12 13 15
6 3 9 3 7 2 3 5 7 10 6 6 8 7 12 10 1 10 7 12 15 10 8 5 0 10 8 3 7 4 9 4 2 5 5 3 3 3 8 4 6 6 9 17 29
7 3 8 5 2 4 4 2 4 7 2 2 4 5 7 11 7 10 8 5 8 7 6 6 3 5 10 14 14 11 9 9 4 8 3 4 4 8 11 13 5 13 3 5 8
4 4 7 5 2 3 1 2 4 8 10 8 8 10 9 6 5 8 4 5 6 6 4 6 5 3 10 7 9 6 9 7 5 3 6 4 2 7 8 12 14 15 6 6 10
3 3 1 1 3 6 8 6 8 7 7 7 8 8 4 8 7 5 6 5 3 5 5 1 3 2 4 10 13 10 13 9 5 4 5 5 6 2 7 10 19 4 9 12 10
3 3 2 4 6 6 5 7 8 8 6 3 5 7 9 6 8 9 12 10 4 9 3 1 4 6 10 13 13 12 16 12 9 8 5 4 7 11 12 15 8 9 12 10 13
3 3 5 6 3 6 2 4 5 9 7 6 7 11 8 8 7 7 7 8 4 5 2 3 3 7 7 12 13 13 16 14 9 10 8 8 9 12 6 9 15 9 15 11 11
9 8 1 6 6 1 5 6 7 8 5 7 5 5 8 10 8 8 8 8 8 8 6 6 5 5 5 9 11 9 8 9 9 7 6 2 11 22 11 13 10 11 11 5 11
Wind_Direction
348 347 348 343 341 339 336 333 330 328 326 322 321 321 322 321 317 321 246 228 207 237 250 166 180 232 235 176 118 150 82 290 235 0 341 132 117 194 139 131 146 189 141 143 159
348 349 349 345 341 340 337 332 330 329 325 320 319 320 320 326 323 270 250 224 211 217 172 208 197 218 236 220 132 118 64 273 252 142 252 169 149 150 134 115 111 121 129 144 149
351 351 348 342 339 338 336 333 329 327 322 320 318 317 318 330 286 244 220 208 231 242 229 231 249 220 238 242 148 171 168 233 266 274 252 220 157 128 110 128 139 140 143 147 157
351 348 346 342 338 335 333 331 331 326 321 321 315 313 315 328 312 96 160 179 265 214 194 239 258 259 246 257 148 148 189 191 270 275 269 170 153 141 137 146 141 141 149 148 169
349 347 346 343 339 333 331 326 328 326 320 320 318 316 329 236 249 220 209 207 158 168 196 219 242 240 245 248 198 162 200 235 232 252 272 125 153 109 125 133 135 142 152 159 174
347 346 344 342 338 332 327 322 324 325 320 317 317 319 279 254 219 135 163 189 198 184 203 234 248 231 274 277 275 197 204 254 277 265 261 101 145 117 134 140 139 150 159 174 181
345 343 342 341 338 330 324 319 317 321 316 309 312 302 265 241 280 155 224 228 233 192 238 240 253 265 249 283 275 266 226 174 255 257 136 143 116 147 152 141 144 154 164 186 187
342 341 342 340 337 330 320 316 311 315 304 296 325 208 254 252 265 251 248 258 227 222 220 257 271 271 270 291 322 287 297 258 263 226 154 109 164 161 146 144 150 158 168 188 188
340 340 340 340 336 327 317 318 307 306 296 283 296 217 263 220 246 226 233 247 224 235 248 259 346 234 273 254 320 283 233 236 263 229 142 118 147 160 155 154 159 163 173 182 183
340 340 338 338 336 327 319 326 302 297 291 224 268 268 265 250 205 198 210 229 251 205 238 227 8 275 258 181 209 234 214 246 237 245 198 142 162 169 160 159 166 168 169 178 178
341 339 337 335 334 328 328 351 333 62 222 231 265 255 310 127 41 315 294 208 239 217 221 209 174 222 231 227 248 259 268 235 236 263 211 138 140 169 156 123 169 174 175 176 171
340 339 336 332 329 320 311 276 28 291 302 277 261 257 283 304 301 208 217 238 229 235 206 252 220 236 222 228 232 253 264 270 299 86 75 135 153 172 181 160 151 176 177 184 164
340 339 336 330 319 309 252 17 326 320 275 287 239 222 229 176 245 235 181 210 207 241 215 216 241 224 248 234 232 241 247 270 262 104 112 106 4 355 333 97 44 180 176 183 191
340 339 336 329 318 323 348 358 333 324 307 248 177 231 141 208 250 253 177 194 234 214 236 224 234 246 229 252 231 242 239 250 271 60 163 165 217 293 163 160 124 130 305 208 190
338 337 330 328 300 307 348 330 325 297 349 141 163 125 213 201 91 203 134 221 253 257 209 234 248 240 245 226 250 243 252 261 254 161 122 349 138 256 201 199 177 172 200 241 188
334 335 323 7 292 276 324 319 292 297 249 140 150 188 212 224 269 116 179 256 302 291 286 252 247 239 240 251 218 247 273 316 318 211 189 177 228 170 195 229 216 177 181 218 189
331 331 306 271 241 316 329 310 284 247 6 117 225 172 197 221 224 192 180 197 215 238 286 289 253 261 247 247 224 256 161 319 327 329 219 228 186 204 205 203 215 189 187 202 203
331 327 295 245 267 283 305 314 267 309 7 32 3 348 308 298 203 185 228 207 214 235 272 230 279 237 258 199 206 219 176 169 211 219 232 244 254 253 199 199 208 220 159 146 39
333 339 275 246 240 270 317 274 337 18 21 355 331 311 283 276 37 323 256 239 26 9 202 17 304 343 270 257 189 269 253 225 269 267 301 220 260 53 135 192 196 192 147 124 88
331 309 260 251 198 235 261 270 28 44 3 345 317 318 323 1 11 205 259 28 98 54 44 355 328 310 307 292 235 179 240 276 283 247 271 262 247 217 179 193 198 192 165 130 133
324 283 125 151 182 225 237 267 78 92 29 350 359 330 338 355 47 308 18 27 13 11 27 351 315 294 334 289 192 233 247 272 293 175 189 283 279 313 189 81 69 89 163 167 177
313 275 154 202 216 218 246 35 292 51 13 12 304 317 357 355 338 345 63 50 16 334 2 51 269 289 282 303 306 215 213 203 165 282 235 176 260 41 87 80 11 39 4 287 195
310 274 182 186 271 326 224 254 62 45 17 12 346 9 5 347 349 345 88 71 35 49 44 338 308 292 323 328 336 220 235 218 218 256 247 138 249 73 85 94 4 66 2 240 265
286 290 263 205 353 10 10 335 116 76 67 46 336 327 331 317 306 300 324 148 72 86 137 181 275 299 267 311 322 321 320 242 225 228 260 213 145 102 139 112 133 35 76 2 325
238 311 11 346 15 337 15 340 346 103 37 63 330 9 22 335 353 9 6 350 182 150 153 237 267 328 317 326 318 313 315 313 237 246 234 279 163 175 179 145 135 93 74 40 323
300 358 343 295 4 293 157 45 322 81 29 16 2 14 349 33 26 350 0 1 332 346 224 238 280 312 305 298 294 299 301 304 260 254 279 262 33 112 60 31 51 45 67 40 325
355 343 257 287 263 250 35 45 63 24 109 75 2 0 27 13 344 321 314 301 298 315 343 2 11 344 276 290 312 307 281 300 325 259 269 275 139 107 50 54 54 48 49 28 5
Height
814 810 806 803 799 796 792 788 785 781 778 775 771 769 766 761 756 755 753 748 748 750 752 755 760 757 757 764 769 778 805 808 794 787 760 738 749 751 738 753 758 757 767 775 780
813 809 805 801 798 795 791 786 783 780 776 773 770 767 764 761 754 748 742 744 747 748 750 753 755 753 754 751 764 782 805 793 763 765 773 745 740 744 749 760 769 770 773 778 782
811 807 804 800 796 792 789 786 782 778 775 772 768 766 764 761 758 737 736 741 744 746 748 750 749 748 752 744 756 769 795 768 752 745 754 748 745 738 755 767 763 771 773 776 781
810 806 801 797 793 790 787 783 779 776 772 770 767 765 764 763 768 737 738 740 741 743 747 748 748 754 756 755 745 763 749 752 744 740 745 751 743 748 745 756 756 762 767 774 779
809 804 800 795 790 787 783 780 777 773 770 768 766 764 763 763 749 738 738 739 739 741 745 747 750 749 759 745 743 753 741 733 737 735 731 727 745 747 745 749 757 766 771 774 777
808 803 798 792 787 783 779 776 773 770 769 766 764 764 765 766 735 735 737 738 739 741 743 744 743 738 744 743 746 734 738 732 730 730 729 743 748 745 751 746 755 767 774 776 776
806 801 796 790 784 779 775 771 768 766 766 765 763 764 763 748 733 734 736 735 737 738 739 737 735 740 737 747 729 732 753 737 732 725 731 731 754 759 748 751 760 765 771 773 775
803 798 793 787 781 776 771 767 764 763 763 763 763 765 758 734 732 732 735 734 734 735 735 734 733 734 740 733 738 748 746 770 734 721 727 736 781 755 747 755 765 767 769 771 772
801 796 790 784 778 772 767 763 760 759 760 762 763 763 752 731 731 730 731 732 731 732 734 731 732 739 741 758 774 759 786 765 747 718 731 739 771 751 744 753 761 763 766 769 771
799 794 787 781 776 769 763 759 756 756 758 761 763 767 742 732 725 726 728 730 730 731 734 735 742 757 756 770 804 783 773 761 753 725 720 743 756 748 744 750 757 761 760 766 768
797 791 784 778 773 769 761 756 759 763 759 753 748 741 728 725 727 728 727 729 728 733 754 741 766 778 763 756 755 751 755 754 734 713 722 736 751 751 744 747 757 760 761 760 764
795 788 781 775 770 769 767 765 761 761 761 742 736 734 728 728 734 726 729 737 739 756 744 756 768 749 740 742 748 749 755 754 731 710 734 747 752 743 740 743 748 756 760 761 760
793 787 780 773 767 765 763 761 760 757 763 739 728 728 727 727 734 728 724 731 741 752 749 763 748 735 737 742 748 749 757 751 748 727 729 756 776 770 756 751 749 749 751 757 760
791 786 780 772 769 765 760 760 759 756 778 744 734 726 724 725 735 715 717 727 736 750 745 748 733 735 738 742 739 764 729 730 736 749 777 745 807 777 760 761 756 758 763 759 758
789 784 778 778 772 767 761 758 758 757 792 729 731 718 717 732 722 721 715 722 742 739 739 751 739 738 741 735 725 745 722 730 731 754 758 767 799 780 755 769 765 761 762 756 750
786 782 777 776 772 763 759 757 756 784 782 735 723 730 733 728 726 720 724 721 721 735 731 734 715 722 726 716 716 716 727 733 738 752 789 768 778 786 770 749 743 744 737 744 745
782 777 774 774 769 763 760 755 782 788 724 740 736 725 734 737 732 727 736 744 757 763 762 740 729 715 709 729 716 724 745 795 799 797 796 753 765 761 733 727 725 733 739 744 741
776 771 770 766 765 764 762 772 787 749 747 727 731 732 743 731 727 727 737 750 738 744 760 766 768 727 709 721 737 739 750 793 812 805 785 745 764 747 708 700 708 714 727 736 744
773 769 767 761 762 762 769 785 766 753 747 749 743 749 747 732 730 731 737 742 740 737 755 767 754 720 709 706 717 739 756 737 769 759 778 760 735 711 708 713 712 714 719 726 726
775 771 761 758 759 762 774 778 757 749 749 747 763 748 758 746 752 742 742 730 737 733 734 751 775 733 717 707 709 727 726 765 766 795 796 762 752 753 732 722 714 716 723 726 725
776 771 755 756 759 765 780 764 750 747 749 758 764 762 760 756 750 753 752 752 744 743 738 746 760 756 734 732 738 739 745 746 754 765 791 791 765 706 714 711 719 716 717 722 730
778 776 754 755 769 762 765 752 756 750 747 752 753 756 762 760 760 758 765 761 750 749 758 760 768 778 756 724 717 718 734 742 778 775 763 768 762 710 717 709 723 713 708 717 705
785 769 753 752 775 765 754 750 752 759 760 762 763 759 759 768 777 760 759 754 752 758 775 770 777 787 771 742 724 727 724 728 735 743 764 779 763 719 714 718 722 717 711 717 714
788 774 754 751 753 762 767 759 765 758 762 766 771 765 768 773 765 769 764 756 753 757 762 765 774 778 794 774 753 751 732 721 734 761 757 752 748 733 731 730 733 721 715 714 722
786 771 767 775 772 769 767 766 765 772 767 766 774 772 779 784 779 784 775 767 754 757 760 767 781 772 766 753 746 742 736 726 734 737 750 733 734 733 723 717 718 711 712 719 726
788 782 776 774 765 767 772 777 773 773 779 781 784 779 781 794 793 795 790 789 779 766 763 764 782 771 775 755 746 746 733 725 719 720 726 721 732 717 721 713 715 713 710 722 728
786 783 780 776 767 768 774 774 775 776 779 780 784 786 789 792 788 787 785 784 783 784 779 779 786 787 787 762 757 765 741 732 726 715 717 732 725 714 735 730 732 730 732 737 725